Location: Saint-Hippolyte
(43.6394°N, 4.7559°E)
Time: 14:08:01
(UTC+00:00)

Cosmos 1697 Rocket - Pass Details

Date: 24 October 2020
Orbit: 831 x 845 km, 71.0° (Epoch: 24 November)

Event Time Altitude Azimuth Distance (km) Brightness Sun altitude
Rises 18:25:53 0° 180° (S) 3,360 5.8 -19.3°
Reaches altitude 10° 18:28:26 10° 172° (S) 2,432 5.0 -19.7°
Enters shadow 18:33:03 37° 118° (ESE) 1,264 3.1 -20.6°
